• Em Portugal
  • Lista de países
  • Para 7 dias
  • Temperatura da água
  • Mapas de satélite
  • Mapa do tempo
  • Widgets de tempo
  • user-avatar
    Iniciar Sessão

    Previsão horária em Osowa

    Hoje, 15 Agosto, Quarta-feira

    Tempo Temperatura Precipitação Vento Pressão Humidade
    00:00 +16°C° 0 mm 2 m/s 740 mmHg 94%
    01:00 +16°C° 0 mm 2 m/s 740 mmHg 94%
    02:00 +16°C° 0 mm 2 m/s 740 mmHg 95%
    03:00 +15°C° 0 mm 2 m/s 740 mmHg 95%
    04:00 +15°C° 0 mm 2 m/s 740 mmHg 95%
    05:00 +15°C° 0 mm 2 m/s 740 mmHg 94%
    06:00 +16°C° 0 mm 3 m/s 740 mmHg 90%
    07:00 +18°C° 0 mm 3 m/s 740 mmHg 86%
    08:00 +19°C° 0 mm 4 m/s 741 mmHg 81%
    09:00 +20°C° 0,1 mm 4 m/s 741 mmHg 77%
    10:00 +21°C° 0,1 mm 5 m/s 741 mmHg 73%
    11:00 +22°C° 0,1 mm 5 m/s 741 mmHg 69%
    12:00 +23°C° 0,3 mm 5 m/s 741 mmHg 68%
    13:00 +23°C° 0,3 mm 5 m/s 741 mmHg 67%
    14:00 +23°C° 0,3 mm 5 m/s 741 mmHg 66%
    15:00 +23°C° 0,2 mm 5 m/s 742 mmHg 69%
    16:00 +23°C° 0,2 mm 5 m/s 742 mmHg 71%
    17:00 +22°C° 0,2 mm 5 m/s 742 mmHg 73%
    18:00 +21°C° 0 mm 5 m/s 742 mmHg 78%
    19:00 +19°C° 0 mm 4 m/s 743 mmHg 84%
    20:00 +18°C° 0 mm 3 m/s 743 mmHg 89%
    21:00 +17°C° 0 mm 3 m/s 743 mmHg 91%
    22:00 +16°C° 0 mm 3 m/s 744 mmHg 94%
    23:00 +16°C° 0 mm 2 m/s 744 mmHg 96%

    Amanhã, 16 Agosto, Quinta-feira

    Tempo Temperatura Precipitação Vento Pressão Humidade
    00:00 +15°C° 0 mm 2 m/s 744 mmHg 97%
    01:00 +15°C° 0 mm 2 m/s 745 mmHg 97%
    02:00 +14°C° 0 mm 2 m/s 745 mmHg 97%
    03:00 +14°C° 0 mm 2 m/s 745 mmHg 97%
    04:00 +14°C° 0 mm 2 m/s 745 mmHg 97%
    05:00 +14°C° 0 mm 2 m/s 745 mmHg 97%
    06:00 +15°C° 0 mm 2 m/s 746 mmHg 93%
    07:00 +16°C° 0 mm 2 m/s 746 mmHg 89%
    08:00 +18°C° 0 mm 2 m/s 746 mmHg 85%
    09:00 +19°C° 0 mm 2 m/s 746 mmHg 78%
    10:00 +21°C° 0 mm 2 m/s 746 mmHg 71%
    11:00 +23°C° 0 mm 2 m/s 747 mmHg 64%
    12:00 +23°C° 0 mm 2 m/s 747 mmHg 62%
    13:00 +24°C° 0 mm 2 m/s 746 mmHg 60%
    14:00 +24°C° 0 mm 2 m/s 746 mmHg 59%
    15:00 +24°C° 0 mm 2 m/s 746 mmHg 59%
    16:00 +24°C° 0 mm 2 m/s 746 mmHg 60%
    17:00 +24°C° 0 mm 1 m/s 746 mmHg 61%
    18:00 +23°C° 0 mm 1 m/s 746 mmHg 68%
    19:00 +21°C° 0 mm 1 m/s 746 mmHg 75%
    20:00 +19°C° 0 mm 1 m/s 746 mmHg 82%
    21:00 +19°C° 0 mm 1 m/s 746 mmHg 83%
    22:00 +18°C° 0 mm 1 m/s 746 mmHg 85%
    23:00 +15°C° 0 mm 0 m/s 746 mmHg 87%

    Depois de amanhã, 17 Agosto, Sexta-feira

    Tempo Temperatura Precipitação Vento Pressão Humidade
    00:00 +15°C° 0 mm 0 m/s 746 mmHg 88%
    01:00 +15°C° 0 mm 0 m/s 746 mmHg 89%
    02:00 +14°C° 0 mm 0 m/s 746 mmHg 90%
    03:00 +14°C° 0 mm 0 m/s 746 mmHg 90%
    04:00 +14°C° 0 mm 0 m/s 746 mmHg 91%
    05:00 +15°C° 0 mm 1 m/s 746 mmHg 91%
    06:00 +16°C° 0 mm 1 m/s 747 mmHg 87%
    07:00 +19°C° 0 mm 1 m/s 747 mmHg 82%
    08:00 +20°C° 0 mm 1 m/s 747 mmHg 78%
    09:00 +22°C° 0 mm 1 m/s 747 mmHg 72%
    10:00 +23°C° 0 mm 1 m/s 747 mmHg 67%
    11:00 +25°C° 0 mm 1 m/s 747 mmHg 62%
    12:00 +25°C° 0 mm 1 m/s 746 mmHg 60%
    13:00 +25°C° 0 mm 2 m/s 746 mmHg 58%
    14:00 +26°C° 0 mm 2 m/s 746 mmHg 56%
    15:00 +26°C° 0 mm 2 m/s 746 mmHg 56%
    16:00 +26°C° 0 mm 2 m/s 746 mmHg 57%
    17:00 +26°C° 0 mm 2 m/s 745 mmHg 57%
    18:00 +24°C° 0 mm 1 m/s 745 mmHg 63%
    19:00 +22°C° 0 mm 1 m/s 745 mmHg 69%
    20:00 +21°C° 0 mm 1 m/s 745 mmHg 75%
    21:00 +20°C° 0 mm 1 m/s 745 mmHg 78%
    22:00 +19°C° 0 mm 1 m/s 746 mmHg 81%
    23:00 +17°C° 0 mm 2 m/s 746 mmHg 84%

    18 Agosto, Sábado

    Tempo Temperatura Precipitação Vento Pressão Humidade
    00:00 +17°C° 0 mm 2 m/s 746 mmHg 86%
    01:00 +17°C° 0 mm 2 m/s 746 mmHg 88%
    02:00 +16°C° 0 mm 2 m/s 746 mmHg 90%
    03:00 +16°C° 0 mm 2 m/s 746 mmHg 91%
    04:00 +16°C° 0 mm 2 m/s 746 mmHg 91%
    05:00 +16°C° 0 mm 1 m/s 746 mmHg 92%
    06:00 +18°C° 0 mm 1 m/s 746 mmHg 87%
    07:00 +19°C° 0 mm 2 m/s 746 mmHg 82%
    08:00 +20°C° 0 mm 2 m/s 746 mmHg 77%
    09:00 +23°C° 0 mm 2 m/s 746 mmHg 70%
    10:00 +25°C° 0 mm 2 m/s 746 mmHg 64%
    11:00 +26°C° 0 mm 2 m/s 746 mmHg 57%
    12:00 +27°C° 0 mm 2 m/s 746 mmHg 54%
    13:00 +27°C° 0 mm 1 m/s 746 mmHg 51%
    14:00 +28°C° 0 mm 1 m/s 746 mmHg 48%
    15:00 +28°C° 0 mm 1 m/s 746 mmHg 51%
    16:00 +27°C° 0 mm 1 m/s 746 mmHg 54%
    17:00 +27°C° 0 mm 1 m/s 746 mmHg 58%
    18:00 +25°C° 0,1 mm 1 m/s 746 mmHg 62%
    19:00 +24°C° 0,1 mm 1 m/s 746 mmHg 67%
    20:00 +22°C° 0,1 mm 1 m/s 746 mmHg 72%
    21:00 +21°C° 0 mm 1 m/s 746 mmHg 77%
    22:00 +19°C° 0 mm 2 m/s 747 mmHg 82%
    23:00 +18°C° 0 mm 2 m/s 747 mmHg 87%

    19 Agosto, Domingo

    Tempo Temperatura Precipitação Vento Pressão Humidade
    00:00 +17°C° 0 mm 2 m/s 747 mmHg 89%
    01:00 +17°C° 0 mm 2 m/s 747 mmHg 92%
    02:00 +16°C° 0 mm 2 m/s 747 mmHg 95%
    03:00 +15°C° 0 mm 2 m/s 747 mmHg 94%
    04:00 +15°C° 0 mm 2 m/s 747 mmHg 93%
    05:00 +14°C° 0 mm 2 m/s 747 mmHg 92%
    06:00 +15°C° 0 mm 2 m/s 747 mmHg 87%
    07:00 +16°C° 0 mm 2 m/s 747 mmHg 81%
    08:00 +17°C° 0 mm 2 m/s 748 mmHg 76%
    09:00 +19°C° 0 mm 2 m/s 748 mmHg 70%
    10:00 +20°C° 0 mm 3 m/s 748 mmHg 65%
    11:00 +22°C° 0 mm 3 m/s 748 mmHg 59%
    12:00 +22°C° 0 mm 3 m/s 748 mmHg 59%
    13:00 +23°C° 0 mm 4 m/s 748 mmHg 59%
    14:00 +23°C° 0 mm 4 m/s 747 mmHg 59%
    15:00 +23°C° 0 mm 4 m/s 747 mmHg 61%
    16:00 +23°C° 0 mm 4 m/s 747 mmHg 62%
    17:00 +23°C° 0 mm 4 m/s 747 mmHg 64%
    18:00 +21°C° 0 mm 3 m/s 747 mmHg 71%
    19:00 +20°C° 0 mm 3 m/s 747 mmHg 77%
    20:00 +18°C° 0 mm 2 m/s 747 mmHg 84%
    21:00 +18°C° 0 mm 2 m/s 747 mmHg 87%
    22:00 +17°C° 0 mm 2 m/s 748 mmHg 90%
    23:00 +16°C° 0 mm 2 m/s 748 mmHg 94%

    20 Agosto, Segunda-feira

    Tempo Temperatura Precipitação Vento Pressão Humidade
    00:00 +16°C° 0 mm 2 m/s 748 mmHg 94%
    01:00 +15°C° 0 mm 2 m/s 748 mmHg 95%
    02:00 +15°C° 0 mm 2 m/s 748 mmHg 96%
    03:00 +14°C° 0 mm 1 m/s 748 mmHg 96%
    04:00 +14°C° 0 mm 1 m/s 748 mmHg 96%
    05:00 +13°C° 0 mm 1 m/s 748 mmHg 96%
    06:00 +15°C° 0 mm 1 m/s 748 mmHg 91%
    07:00 +16°C° 0 mm 1 m/s 748 mmHg 86%
    08:00 +18°C° 0 mm 1 m/s 748 mmHg 81%
    09:00 +19°C° 0 mm 1 m/s 748 mmHg 77%
    10:00 +19°C° 0 mm 2 m/s 748 mmHg 73%
    11:00 +21°C° 0 mm 2 m/s 748 mmHg 69%
    12:00 +21°C° 0,1 mm 2 m/s 748 mmHg 67%
    13:00 +23°C° 0,1 mm 2 m/s 748 mmHg 66%
    14:00 +22°C° 0,1 mm 3 m/s 747 mmHg 65%
    15:00 +23°C° 0,1 mm 2 m/s 747 mmHg 65%
    16:00 +23°C° 0,1 mm 2 m/s 747 mmHg 65%
    17:00 +23°C° 0,1 mm 2 m/s 747 mmHg 65%
    18:00 +22°C° 0 mm 1 m/s 747 mmHg 71%
    19:00 +21°C° 0 mm 1 m/s 747 mmHg 76%
    20:00 +19°C° 0 mm 1 m/s 746 mmHg 81%
    21:00 +19°C° 0 mm 1 m/s 746 mmHg 81%
    22:00 +19°C° 0 mm 1 m/s 746 mmHg 81%
    23:00 +18°C° 0 mm 2 m/s 746 mmHg 82%
    Mostrar mais